[[{"header":{"parameterUnit":"m.s-1","parameterCategory":1,"la1":30.2991,"la2":30.254,"lo1":-89.0895,"lo2":-89.0444,"dy":0.0017,"dx":0.0017,"nx":28,"ny":28,"refTime":"2024-03-31T21:00:00:Z","depth":0,"parameterNumber":2,"parameterNumberName":"U-component_of_WINDS"},"data":[0,0,0,0,0,0,0,0,0,0,0,0,0,0,0,0,0,0,0,0,0,0,0,0,0,0,0,0,0,0,0,0,0,0,0,0,0,0,0,0,0,0,0,0,0,0,0,0,0,0,0,0,0,0,0,0,0,0,-2.0539,-2.0539,0,-2.0535,-2.0535,-2.0535,-2.0511,-2.051,-2.0509,-2.0509,-2.0505,-2.0506,-2.0506,0,0,0,0,0,0,0,0,0,0,0,0,0,-2.0525,-2.0525,-2.0539,-2.0539,-2.0538,-2.0535,-2.0535,-2.0535,-2.0511,-2.051,-2.0509,-2.0509,-2.0505,-2.0506,-2.0506,0,0,0,0,0,0,0,0,0,0,0,0,0,-2.0527,-2.0525,-2.0539,-2.0526,-2.0525,-2.0535,-2.0535,-2.0535,-2.0511,-2.051,-2.0509,-2.0508,-2.0505,-2.0506,-2.0506,-2.0528,0,0,-2.0508,-2.0509,0,0,0,0,0,0,0,0,-2.0527,-2.0527,-2.0528,-2.0527,-2.0526,-2.0522,-2.0529,-2.0533,-2.0511,-2.0516,-2.0509,-2.0508,-2.0512,-2.0512,-2.0513,-2.0528,-2.0528,-2.0508,-2.0509,-2.0509,-2.0509,0,0,0,0,0,0,0,-2.0527,-2.0527,-2.0537,-2.0528,-2.0527,-2.0521,-2.052,-2.0529,-2.0519,-2.0516,-2.0514,-2.0514,-2.0511,-2.0512,-2.0513,-2.0528,-2.0508,-2.0509,-2.0509,-2.051,-2.0559,-2.056,0,0,0,0,0,0,-2.0528,-2.0527,-2.0537,-2.0537,-2.0524,-2.0522,-2.0521,-2.0524,-2.0519,-2.0517,-2.0515,-2.0513,-2.0512,-2.0512,-2.0512,-2.0536,-2.0509,-2.051,-2.051,-2.0558,-2.0559,-2.056,0,0,0,0,0,0,-2.0528,-2.0529,-2.0537,-2.0532,-2.0532,-2.0523,-2.0527,-2.0525,-2.0526,-2.0518,-2.0516,-2.0518,-2.0511,-2.0511,-2.0524,-2.0536,-2.051,-2.0511,-2.0557,-2.0558,-2.056,-2.0585,0,0,0,0,0,0,-2.0528,-2.0529,-2.0538,-2.0532,-2.0533,-2.0549,-2.0528,-2.0525,-2.0527,-2.0525,-2.0521,-2.0519,-2.051,-2.0523,-2.0525,-2.0536,-2.0511,-2.0556,-2.0558,-2.0559,-2.0583,-2.0587,-2.059,0,0,0,0,0,-2.0527,-2.0545,-2.0538,-2.0539,-2.0543,-2.055,-2.055,-2.054,-2.0528,-2.0536,-2.0531,-2.0519,-2.0535,-2.0525,-2.0526,-2.0538,-2.0555,-2.0557,-2.0559,-2.0581,-2.0586,-2.059,0,0,0,0,0,0,-2.0552,-2.0544,-2.0536,-2.0553,-2.0552,-2.0546,-2.0555,-2.0545,-2.0548,-2.0545,-2.0533,-2.0532,-2.0546,-2.0544,-2.0533,-2.0558,-2.0543,-2.0545,-2.0559,-2.0563,-2.0567,-2.0566,-2.0512,0,0,0,0,0,-2.056,-2.0566,-2.0559,-2.0574,-2.0574,-2.0565,-2.0568,-2.056,-2.0558,-2.0558,-2.0554,-2.0553,-2.0557,-2.0561,-2.0565,-2.0583,-2.0581,-2.0592,-2.0596,-2.0599,-2.06,-2.0609,-2.0613,-2.0567,-2.0567,-2.0567,0,0,-2.0575,-2.0571,-2.0576,-2.0579,-2.0577,-2.0584,-2.0565,-2.0573,-2.0577,-2.0559,-2.057,-2.0567,-2.0566,-2.0581,-2.0587,-2.0579,-2.0613,-2.0601,-2.0604,-2.0604,-2.0611,-2.0616,-2.0619,-2.0568,-2.0568,-2.0568,0,0,-2.0605,-2.0604,-2.0616,-2.0615,-2.0613,-2.0606,-2.061,-2.0605,-2.0602,-2.0613,-2.0599,-2.0605,-2.0613,-2.0612,-2.0613,-2.0644,-2.0632,-2.0645,-2.0664,-2.0672,-2.0676,-2.0679,-2.0688,-2.0692,-2.0648,-2.0648,-2.0648,0,-2.0624,-2.0633,-2.0623,-2.0631,-2.0633,-2.0617,-2.0629,-2.0628,-2.0628,-2.0629,-2.062,-2.063,-2.0628,-2.0642,-2.0649,-2.0651,-2.0653,-2.0645,-2.0676,-2.0679,-2.0682,-2.0691,-2.0694,-2.0649,-2.0649,-2.0649,-2.0649,0,-2.0656,-2.0663,-2.0673,-2.0672,-2.0675,-2.0685,-2.0676,-2.068,-2.0672,-2.0667,-2.0678,-2.0675,-2.0677,-2.0681,-2.0674,-2.0694,-2.0688,-2.0679,-2.0662,-2.0688,-2.0696,-2.0699,-2.0651,-2.0651,-2.065,-2.065,0,0,-2.07,-2.0694,-2.0698,-2.0697,-2.0694,-2.0699,-2.0708,-2.0711,-2.0714,-2.0714,-2.0721,-2.0729,-2.0719,-2.072,-2.0713,-2.072,-2.0743,-2.0709,-2.0709,-2.0714,-2.0763,-2.0769,-2.0773,-2.0736,-2.0737,-2.0737,-2.0763,0,-2.0728,-2.0743,-2.0734,-2.075,-2.0756,-2.0742,-2.075,-2.0749,-2.0744,-2.0748,-2.0744,-2.0749,-2.0737,-2.0737,-2.0744,-2.0739,-2.0752,-2.0737,-2.0741,-2.0742,-2.074,-2.0778,-2.0784,-2.0808,-2.0766,-2.0766,-2.0767,0,-2.0762,-2.0763,-2.078,-2.0775,-2.0777,-2.0785,-2.0785,-2.079,-2.0789,-2.0785,-2.0786,-2.0777,-2.0785,-2.0771,-2.0782,-2.0772,-2.0774,-2.0772,-2.0772,-2.0771,-2.0754,-2.0775,-2.0816,-2.0819,-2.0772,-2.0772,-2.0771,0,-2.079,-2.0797,-2.0807,-2.0807,-2.0802,-2.0808,-2.0806,-2.0804,-2.0805,-2.0807,-2.0808,-2.081,-2.0811,-2.0814,-2.0805,-2.0796,-2.0817,-2.0802,-2.0813,-2.0813,-2.0817,-2.0816,-2.0856,-2.0821,-2.0821,-2.0821,-2.0821,0,-2.082,-2.0831,-2.0819,-2.0826,-2.0837,-2.0827,-2.0838,-2.0835,-2.0833,-2.0838,-2.0827,-2.0832,-2.0822,-2.0826,-2.082,-2.0829,-2.083,-2.0827,-2.0825,-2.0827,-2.0827,-2.0826,-2.0823,-2.0822,-2.0822,-2.0822,-2.0822,0,-2.0853,-2.0846,-2.0856,-2.0851,-2.085,-2.0858,-2.0853,-2.0859,-2.0854,-2.0861,-2.0862,-2.0855,-2.0859,-2.0851,-2.0855,-2.0851,-2.0863,-2.086,-2.0863,-2.0862,-2.0872,-2.0871,-2.0911,-2.0915,-2.088,-2.088,-2.0881,0,-2.0872,-2.0879,-2.0875,-2.0877,-2.0876,-2.0881,-2.0882,-2.0873,-2.0875,-2.0874,-2.088,-2.0883,-2.0885,-2.0893,-2.0887,-2.089,-2.0885,-2.0899,-2.0885,-2.0887,-2.0883,-2.0882,-2.0882,-2.0901,-2.0902,-2.0902,-2.0902,0,-2.0905,-2.0901,-2.0904,-2.0906,-2.0908,-2.0909,-2.0909,-2.0912,-2.0902,-2.0905,-2.0909,-2.0911,-2.0914,-2.0917,-2.0919,-2.0917,-2.0908,-2.0907,-2.0909,-2.091,-2.0912,-2.0909,-2.0869,-2.0906,-2.0905,-2.0905,-2.0905,-2.0905,-2.093,-2.0935,-2.0933,-2.0936,-2.0935,-2.0936,-2.094,-2.0936,-2.0939,-2.0941,-2.0936,-2.0941,-2.0939,-2.094,-2.094,-2.0943,-2.0937,-2.0941,-2.0941,-2.0942,-2.0943,-2.0913,-2.0944,-2.0944,-2.0944,-2.0943,-2.0943,0,-2.0961,-2.0959,-2.0962,-2.0962,-2.0965,-2.0957,-2.0957,-2.0959,-2.0964,-2.0963,-2.0965,-2.097,-2.0973,-2.0968,-2.097,-2.0974,-2.097,-2.0975,-2.0973,-2.0973,-2.0949,-2.0946,-2.0978,-2.0978,-2.0978,-2.0978,-2.0978,-2.0978,-2.0977,-2.0986,-2.0982,-2.099,-2.0988,-2.0992,-2.0993,-2.0993,-2.0992,-2.0997,-2.1,-2.0997,-2.0994,-2.0996,-2.0999,-2.0997,-2.0998,-2.1004,-2.1001,-2.0978,-2.0975,-2.0971,-2.0968,-2.1004,-2.1005,-2.1024,-2.1024,-2.1024]},{"header":{"parameterUnit":"m.s-1","parameterCategory":1,"la1":30.2991,"la2":30.254,"lo1":-89.0895,"lo2":-89.0444,"dy":0.0017,"dx":0.0017,"nx":28,"ny":28,"refTime":"2024-03-31T21:00:00:Z","depth":0,"parameterNumber":3,"parameterNumberName":"V-component_of_WINDS"},"data":[0,0,0,0,0,0,0,0,0,0,0,0,0,0,0,0,0,0,0,0,0,0,0,0,0,0,0,0,0,0,0,0,0,0,0,0,0,0,0,0,0,0,0,0,0,0,0,0,0,0,0,0,0,0,0,0,0,0,3.0707,3.0708,0,3.0756,3.0757,3.0757,3.0788,3.0789,3.0789,3.0789,3.0836,3.0837,3.0838,0,0,0,0,0,0,0,0,0,0,0,0,0,3.0641,3.0642,3.0707,3.0708,3.0708,3.0756,3.0757,3.0757,3.0788,3.0789,3.0789,3.0789,3.0836,3.0837,3.0838,0,0,0,0,0,0,0,0,0,0,0,0,0,3.0677,3.0642,3.0707,3.073,3.0732,3.0756,3.0757,3.0757,3.0788,3.0789,3.0789,3.0789,3.0835,3.0837,3.0838,3.0842,0,0,3.0843,3.0844,0,0,0,0,0,0,0,0,3.0675,3.068,3.0726,3.0728,3.0731,3.0767,3.075,3.0786,3.0788,3.0767,3.0789,3.0789,3.0812,3.0816,3.0824,3.0844,3.0846,3.0843,3.0844,3.0845,3.0845,0,0,0,0,0,0,0,3.0673,3.0678,3.0726,3.0727,3.073,3.0737,3.0743,3.0757,3.0787,3.0769,3.0771,3.0777,3.0814,3.0823,3.0826,3.0847,3.0843,3.0845,3.0846,3.0846,3.0876,3.0875,0,0,0,0,0,0,3.0667,3.0676,3.0725,3.0728,3.0704,3.0738,3.0745,3.0755,3.0787,3.0793,3.0776,3.0778,3.082,3.0824,3.0827,3.0836,3.0845,3.0846,3.0847,3.0876,3.0876,3.0875,0,0,0,0,0,0,3.0665,3.0671,3.0723,3.0703,3.071,3.0739,3.075,3.0756,3.0764,3.0793,3.0798,3.078,3.082,3.0825,3.0839,3.0838,3.0847,3.0849,3.0876,3.0876,3.0875,3.0852,0,0,0,0,0,0,3.0663,3.067,3.0672,3.0702,3.0711,3.0734,3.075,3.0756,3.0767,3.077,3.0798,3.0803,3.0821,3.0837,3.0841,3.084,3.085,3.0876,3.0876,3.0875,3.0853,3.0851,3.0849,0,0,0,0,0,3.0661,3.0662,3.0672,3.0677,3.0713,3.0734,3.0739,3.076,3.0767,3.0769,3.0788,3.0802,3.0837,3.0838,3.0843,3.0843,3.0876,3.0876,3.0876,3.0854,3.0851,3.0849,0,0,0,0,0,0,3.0629,3.0666,3.0677,3.0689,3.0708,3.0739,3.0742,3.0757,3.0773,3.0775,3.08,3.0806,3.0818,3.0832,3.0831,3.085,3.0859,3.0859,3.084,3.0838,3.0836,3.0833,3.0851,0,0,0,0,0,3.0623,3.0637,3.0669,3.0676,3.0685,3.0712,3.0722,3.0737,3.0758,3.0766,3.0785,3.0804,3.082,3.083,3.0846,3.0855,3.0862,3.0858,3.0856,3.0854,3.0854,3.0863,3.0861,3.0874,3.0874,3.0874,0,0,3.0611,3.0634,3.064,3.067,3.0687,3.0701,3.0718,3.0732,3.0743,3.0767,3.0783,3.0798,3.0821,3.0833,3.084,3.0845,3.0853,3.0854,3.0852,3.0853,3.0862,3.0861,3.086,3.0874,3.0874,3.0874,0,0,3.0597,3.0615,3.0624,3.0641,3.0667,3.0686,3.0688,3.0718,3.0729,3.0746,3.0765,3.0778,3.0804,3.0821,3.0832,3.0828,3.0842,3.0832,3.0822,3.083,3.0829,3.0828,3.0828,3.0828,3.0832,3.0832,3.0832,0,3.0579,3.0601,3.0626,3.064,3.0653,3.0678,3.0688,3.0703,3.0732,3.0741,3.0746,3.0782,3.0799,3.0817,3.0816,3.0824,3.0828,3.0829,3.0827,3.0827,3.0827,3.0827,3.0826,3.0831,3.0831,3.0831,3.0832,0,3.0579,3.0594,3.0598,3.0628,3.0642,3.0653,3.068,3.0691,3.0706,3.0724,3.0741,3.0763,3.0785,3.079,3.0803,3.081,3.0813,3.0823,3.0832,3.0824,3.0825,3.0825,3.083,3.083,3.083,3.0831,0,0,3.0544,3.059,3.0591,3.0607,3.0639,3.0651,3.0664,3.0687,3.0697,3.0717,3.0729,3.0752,3.0762,3.0776,3.0792,3.0798,3.0796,3.0808,3.0809,3.0806,3.0807,3.08,3.0799,3.0805,3.0805,3.0805,3.0805,0,3.0536,3.0562,3.0586,3.0603,3.0619,3.0644,3.0656,3.0677,3.0695,3.0711,3.073,3.0746,3.0758,3.0766,3.0774,3.0794,3.0796,3.0795,3.0817,3.0818,3.0811,3.0799,3.0791,3.079,3.0805,3.0805,3.0805,0,3.0529,3.0551,3.057,3.0603,3.0611,3.0621,3.0645,3.066,3.0685,3.0697,3.0714,3.0732,3.0747,3.0756,3.0778,3.0777,3.0787,3.0799,3.0799,3.0803,3.0811,3.0803,3.079,3.079,3.0806,3.0806,3.0806,0,3.0504,3.0537,3.0554,3.0566,3.0605,3.0612,3.0628,3.0653,3.0667,3.0688,3.0697,3.0719,3.0731,3.0748,3.0772,3.0775,3.0792,3.0802,3.0804,3.0803,3.0806,3.0805,3.0795,3.0811,3.0811,3.0811,3.0811,0,3.0493,3.0504,3.0544,3.0554,3.0568,3.0596,3.0609,3.0627,3.065,3.0665,3.0687,3.07,3.073,3.0747,3.0765,3.0782,3.0787,3.0798,3.0803,3.0796,3.0795,3.0804,3.0805,3.0811,3.0811,3.0811,3.0811,0,3.0467,3.0494,3.0514,3.055,3.056,3.0568,3.0599,3.061,3.063,3.0648,3.0654,3.0685,3.0706,3.0732,3.076,3.0773,3.0788,3.0795,3.078,3.0783,3.0784,3.0784,3.0779,3.0781,3.0795,3.0795,3.0795,0,3.0458,3.0468,3.0506,3.0518,3.0534,3.0553,3.0568,3.0596,3.061,3.0641,3.0649,3.0672,3.0692,3.0725,3.0749,3.0772,3.078,3.0777,3.0783,3.0777,3.0781,3.0781,3.0783,3.0775,3.0775,3.0774,3.0774,0,3.044,3.0454,3.0475,3.0501,3.0518,3.0539,3.0562,3.057,3.0603,3.0618,3.0641,3.0657,3.0688,3.0711,3.0737,3.0753,3.077,3.0772,3.0774,3.0768,3.0759,3.0765,3.0777,3.0772,3.0772,3.0773,3.0773,3.0773,3.0424,3.0435,3.0464,3.0487,3.0507,3.0528,3.0541,3.0564,3.0584,3.0612,3.0628,3.0651,3.0677,3.0715,3.0731,3.0749,3.0755,3.0757,3.0758,3.0758,3.0757,3.0756,3.0754,3.0754,3.0754,3.0754,3.0754,0,3.0409,3.0429,3.045,3.0482,3.05,3.0516,3.0542,3.0556,3.0576,3.06,3.0621,3.0648,3.0671,3.0699,3.0724,3.0733,3.0742,3.0739,3.0739,3.0743,3.0749,3.0746,3.0732,3.0732,3.0732,3.0732,3.0732,3.0732,3.0403,3.0423,3.044,3.0471,3.0491,3.0515,3.0529,3.0549,3.0569,3.0599,3.0619,3.0637,3.0663,3.0691,3.0713,3.0721,3.0729,3.0725,3.0734,3.074,3.0742,3.0744,3.0741,3.0726,3.0726,3.0726,3.0726,3.0726]}]]